[[{"header":{"parameterUnit":"m.s-1","parameterCategory":1,"la1":30.2991,"la2":30.254,"lo1":-89.0895,"lo2":-89.0444,"dy":0.0017,"dx":0.0017,"nx":28,"ny":28,"refTime":"2024-06-19T09:00:00:Z","depth":0,"parameterNumber":2,"parameterNumberName":"U-component_of_WINDS"},"data":[0,0,0,0,0,0,0,0,0,0,0,0,0,0,0,0,0,0,0,0,0,0,0,0,0,0,0,0,0,0,0,0,0,0,0,0,0,0,0,0,0,0,0,0,0,0,0,0,0,0,0,0,0,0,0,0,0,0,-6.2891,-6.2891,0,-6.2884,-6.2884,-6.2884,-6.2728,-6.2724,-6.272,-6.2716,-6.271,-6.2714,-6.2717,0,0,0,0,0,0,0,0,0,0,0,0,0,-6.277,-6.2773,-6.2891,-6.2891,-6.2891,-6.2884,-6.2884,-6.2884,-6.2729,-6.2724,-6.2719,-6.2714,-6.2709,-6.2713,-6.2718,0,0,0,0,0,0,0,0,0,0,0,0,0,-6.2799,-6.2774,-6.2891,-6.2812,-6.2805,-6.2884,-6.2884,-6.2884,-6.273,-6.2723,-6.2717,-6.2712,-6.2708,-6.2713,-6.2718,-6.2873,0,0,-6.2735,-6.2737,0,0,0,0,0,0,0,0,-6.2798,-6.2804,-6.2824,-6.2818,-6.281,-6.2801,-6.2839,-6.288,-6.2731,-6.2758,-6.2716,-6.2709,-6.2745,-6.2747,-6.2759,-6.2872,-6.2872,-6.2735,-6.2739,-6.2741,-6.2742,0,0,0,0,0,0,0,-6.2796,-6.2803,-6.2888,-6.2824,-6.2816,-6.2778,-6.2775,-6.2847,-6.2786,-6.2755,-6.2744,-6.2745,-6.274,-6.2755,-6.2758,-6.2872,-6.2735,-6.274,-6.2743,-6.2745,-6.3112,-6.3119,0,0,0,0,0,0,-6.2805,-6.2803,-6.2888,-6.2888,-6.2789,-6.2785,-6.2782,-6.281,-6.2785,-6.2775,-6.2751,-6.2738,-6.2748,-6.2752,-6.2757,-6.2936,-6.2741,-6.2746,-6.2749,-6.3106,-6.3114,-6.3121,0,0,0,0,0,0,-6.2803,-6.2814,-6.2889,-6.2842,-6.2849,-6.2793,-6.2826,-6.2813,-6.2827,-6.2781,-6.2769,-6.2776,-6.2744,-6.275,-6.2845,-6.2934,-6.2748,-6.2753,-6.3098,-6.3108,-6.3117,-6.3296,0,0,0,0,0,0,-6.28,-6.2814,-6.2871,-6.2845,-6.2852,-6.2977,-6.2831,-6.2817,-6.2836,-6.282,-6.2802,-6.2793,-6.2739,-6.2838,-6.2851,-6.2938,-6.2757,-6.309,-6.3103,-6.3114,-6.3282,-6.331,-6.3335,0,0,0,0,0,-6.2796,-6.2922,-6.2875,-6.2886,-6.2923,-6.2982,-6.2986,-6.2922,-6.2844,-6.2902,-6.2873,-6.2793,-6.2923,-6.2849,-6.2862,-6.2952,-6.3084,-6.3099,-6.3113,-6.327,-6.3305,-6.3334,0,0,0,0,0,0,-6.296,-6.2917,-6.2864,-6.2985,-6.2989,-6.2956,-6.3026,-6.2961,-6.2986,-6.297,-6.2889,-6.2886,-6.2995,-6.2983,-6.2902,-6.3101,-6.299,-6.3008,-6.3104,-6.3137,-6.3163,-6.3163,-6.2762,0,0,0,0,0,-6.3011,-6.3062,-6.3022,-6.3132,-6.3137,-6.3082,-6.3105,-6.3056,-6.3056,-6.3056,-6.3034,-6.3038,-6.3079,-6.3107,-6.3143,-6.328,-6.3274,-6.3349,-6.3375,-6.3398,-6.3413,-6.3486,-6.3518,-6.3169,-6.3169,-6.3168,0,0,-6.3115,-6.3098,-6.3135,-6.3165,-6.3161,-6.3217,-6.3084,-6.3148,-6.3189,-6.3066,-6.3154,-6.3139,-6.3138,-6.3255,-6.3306,-6.3249,-6.3509,-6.3416,-6.3434,-6.3438,-6.3504,-6.3537,-6.3567,-6.3179,-6.3177,-6.3175,0,0,-6.3333,-6.3326,-6.3417,-6.3417,-6.3413,-6.3376,-6.3399,-6.3376,-6.3361,-6.3449,-6.3358,-6.3406,-6.3479,-6.3482,-6.3493,-6.3715,-6.3643,-6.3729,-6.3868,-6.3939,-6.3967,-6.3991,-6.407,-6.4099,-6.3746,-6.3746,-6.3746,0,-6.3463,-6.3542,-6.3472,-6.3543,-6.3559,-6.3451,-6.3543,-6.3547,-6.3556,-6.357,-6.3506,-6.3596,-6.3588,-6.3704,-6.3759,-6.3772,-6.3795,-6.373,-6.3968,-6.3992,-6.4013,-6.4088,-6.4118,-6.3757,-6.3755,-6.3754,-6.3753,0,-6.3702,-6.3759,-6.3834,-6.3845,-6.387,-6.3951,-6.3894,-6.3928,-6.3877,-6.3847,-6.3939,-6.3926,-6.3957,-6.3981,-6.3932,-6.4092,-6.4056,-6.3983,-6.3868,-6.4058,-6.4127,-6.4155,-6.3771,-6.3768,-6.3765,-6.3762,0,0,-6.4021,-6.3994,-6.4022,-6.4027,-6.4016,-6.4059,-6.4137,-6.4167,-6.4198,-6.4209,-6.4271,-6.4337,-6.4268,-6.4281,-6.4232,-6.4295,-6.4472,-6.4213,-6.4211,-6.4261,-6.4647,-6.4702,-6.4737,-6.4426,-6.4431,-6.4435,-6.4647,0,-6.4231,-6.436,-6.43,-6.4437,-6.4489,-6.4389,-6.4456,-6.4458,-6.4433,-6.4474,-6.4446,-6.4494,-6.44,-6.4407,-6.4466,-6.4438,-6.4549,-6.4422,-6.4483,-6.4486,-6.4485,-6.4772,-6.483,-6.5031,-6.4674,-6.4678,-6.4681,0,-6.4492,-6.4514,-6.4656,-6.4637,-6.4657,-6.4719,-6.4742,-6.4783,-6.4784,-6.4761,-6.4777,-6.4714,-6.4789,-6.4678,-6.4781,-6.4697,-6.4719,-6.471,-6.4716,-6.4718,-6.4594,-6.4781,-6.5094,-6.5124,-6.4723,-6.472,-6.4717,0,-6.4709,-6.4775,-6.4868,-6.4875,-6.4856,-6.4902,-6.4896,-6.4891,-6.4913,-6.4935,-6.4949,-6.498,-6.4996,-6.5021,-6.4969,-6.4893,-6.5079,-6.4963,-6.5063,-6.5064,-6.5104,-6.5102,-6.5424,-6.5122,-6.5121,-6.5121,-6.512,0,-6.4949,-6.504,-6.4965,-6.5023,-6.5122,-6.5053,-6.5153,-6.5137,-6.5133,-6.5186,-6.5102,-6.5154,-6.5082,-6.5127,-6.5086,-6.5178,-6.5186,-6.517,-6.5158,-6.5177,-6.5179,-6.5189,-6.5173,-6.5129,-6.5127,-6.5125,-6.5124,0,-6.5207,-6.5161,-6.5256,-6.5231,-6.5227,-6.5301,-6.528,-6.5332,-6.5303,-6.5371,-6.5383,-6.5337,-6.5385,-6.5336,-6.5381,-6.5354,-6.5477,-6.5445,-6.5477,-6.5467,-6.5569,-6.556,-6.5907,-6.5949,-6.5621,-6.5624,-6.5627,0,-6.5362,-6.543,-6.5413,-6.5442,-6.5442,-6.549,-6.5513,-6.5449,-6.5477,-6.5484,-6.5536,-6.5578,-6.5607,-6.569,-6.5661,-6.5696,-6.5663,-6.5783,-6.5668,-6.5685,-6.5664,-6.566,-6.5666,-6.5806,-6.5809,-6.5813,-6.5815,0,-6.5643,-6.5617,-6.5653,-6.5683,-6.5712,-6.5732,-6.5746,-6.5775,-6.5709,-6.5745,-6.5794,-6.5817,-6.5864,-6.5907,-6.5933,-6.5928,-6.5862,-6.5852,-6.5877,-6.5896,-6.5911,-6.5903,-6.5539,-6.5844,-6.5841,-6.5839,-6.5837,-6.5836,-6.5853,-6.5908,-6.5905,-6.5949,-6.5953,-6.5968,-6.6016,-6.5993,-6.6033,-6.6065,-6.6026,-6.6087,-6.6087,-6.6116,-6.6119,-6.6165,-6.6115,-6.6151,-6.6159,-6.6169,-6.6184,-6.5905,-6.617,-6.6169,-6.6168,-6.6168,-6.6167,0,-6.6128,-6.6121,-6.6162,-6.6184,-6.6219,-6.6154,-6.6167,-6.62,-6.6254,-6.626,-6.6292,-6.6349,-6.639,-6.6366,-6.6401,-6.6444,-6.6414,-6.6455,-6.6451,-6.6451,-6.6227,-6.6202,-6.6479,-6.6478,-6.6478,-6.6478,-6.6478,-6.6478,-6.6275,-6.6365,-6.634,-6.6432,-6.6425,-6.6483,-6.6496,-6.651,-6.6514,-6.6582,-6.6616,-6.6599,-6.6594,-6.6629,-6.6664,-6.6656,-6.6673,-6.6725,-6.6706,-6.6497,-6.6466,-6.6437,-6.6413,-6.6729,-6.673,-6.6925,-6.6927,-6.6928]},{"header":{"parameterUnit":"m.s-1","parameterCategory":1,"la1":30.2991,"la2":30.254,"lo1":-89.0895,"lo2":-89.0444,"dy":0.0017,"dx":0.0017,"nx":28,"ny":28,"refTime":"2024-06-19T09:00:00:Z","depth":0,"parameterNumber":3,"parameterNumberName":"V-component_of_WINDS"},"data":[0,0,0,0,0,0,0,0,0,0,0,0,0,0,0,0,0,0,0,0,0,0,0,0,0,0,0,0,0,0,0,0,0,0,0,0,0,0,0,0,0,0,0,0,0,0,0,0,0,0,0,0,0,0,0,0,0,0,2.1725,2.1725,0,2.172,2.172,2.172,2.1769,2.1771,2.1772,2.1774,2.1761,2.1759,2.1758,0,0,0,0,0,0,0,0,0,0,0,0,0,2.1772,2.1771,2.1725,2.1725,2.1725,2.172,2.172,2.172,2.1769,2.1771,2.1773,2.1774,2.1761,2.1759,2.1757,0,0,0,0,0,0,0,0,0,0,0,0,0,2.1758,2.1771,2.1725,2.1749,2.1751,2.172,2.172,2.172,2.1769,2.1771,2.1773,2.1775,2.1762,2.176,2.1757,2.17,0,0,2.175,2.1749,0,0,0,0,0,0,0,0,2.1758,2.1756,2.1746,2.1748,2.175,2.1748,2.1732,2.1713,2.1768,2.1762,2.1774,2.1776,2.1754,2.1753,2.1747,2.17,2.1699,2.1749,2.1748,2.1747,2.1746,0,0,0,0,0,0,0,2.1759,2.1756,2.1723,2.1746,2.1748,2.1759,2.1759,2.1729,2.1746,2.1763,2.1766,2.1765,2.1756,2.1749,2.1747,2.1699,2.175,2.1747,2.1746,2.1745,2.1606,2.1604,0,0,0,0,0,0,2.1758,2.1757,2.1723,2.1723,2.176,2.1756,2.1756,2.1746,2.1747,2.1749,2.1764,2.1768,2.1752,2.175,2.1747,2.168,2.1747,2.1745,2.1743,2.1609,2.1606,2.1603,0,0,0,0,0,0,2.1759,2.1755,2.1723,2.1741,2.1738,2.1753,2.1741,2.1745,2.1738,2.1748,2.175,2.1754,2.1754,2.175,2.1712,2.168,2.1744,2.1741,2.1611,2.1608,2.1605,2.1547,0,0,0,0,0,0,2.176,2.1755,2.1734,2.174,2.1737,2.169,2.1739,2.1743,2.1735,2.174,2.1739,2.1741,2.1755,2.1716,2.171,2.1678,2.1739,2.1614,2.161,2.1606,2.1551,2.1542,2.1533,0,0,0,0,0,2.1761,2.1716,2.1733,2.1728,2.1712,2.1688,2.1686,2.1706,2.1732,2.1711,2.1717,2.1741,2.1686,2.1711,2.1705,2.1672,2.1616,2.1611,2.1606,2.1555,2.1544,2.1534,0,0,0,0,0,0,2.1702,2.1717,2.1736,2.1692,2.1689,2.1697,2.167,2.1692,2.168,2.1685,2.1708,2.1707,2.1665,2.1665,2.1694,2.1618,2.1655,2.1649,2.1619,2.1608,2.1599,2.1598,2.1737,0,0,0,0,0,2.1685,2.1667,2.168,2.1639,2.1638,2.1654,2.1645,2.1661,2.1658,2.1656,2.1659,2.1653,2.1635,2.1622,2.1605,2.1553,2.1553,2.1527,2.1519,2.1511,2.1504,2.1476,2.1465,2.1587,2.1587,2.1587,0,0,2.1647,2.1653,2.1639,2.1628,2.1628,2.1606,2.1653,2.1628,2.1612,2.1651,2.1616,2.1619,2.1614,2.1569,2.1549,2.1568,2.1471,2.1505,2.1499,2.1496,2.147,2.1458,2.1448,2.1584,2.1584,2.1585,0,0,2.1567,2.157,2.1537,2.1537,2.1538,2.155,2.1542,2.1547,2.1551,2.1518,2.1547,2.1528,2.1495,2.1491,2.1484,2.1407,2.1427,2.1401,2.1352,2.1325,2.1315,2.1307,2.1278,2.1267,2.1394,2.1394,2.1394,0,2.1519,2.149,2.1517,2.1491,2.1485,2.1523,2.1489,2.1487,2.148,2.1474,2.1497,2.1458,2.1458,2.1412,2.1393,2.1387,2.1378,2.1399,2.1315,2.1307,2.1299,2.1271,2.1261,2.1391,2.1391,2.1392,2.1392,0,2.143,2.141,2.1383,2.138,2.1371,2.134,2.1361,2.1349,2.1366,2.1376,2.1341,2.1343,2.1327,2.1318,2.1334,2.1275,2.1287,2.1312,2.1349,2.1284,2.1258,2.1248,2.1386,2.1387,2.1388,2.1389,0,0,2.1309,2.1323,2.1313,2.1312,2.1317,2.13,2.1273,2.1261,2.1249,2.1244,2.122,2.1194,2.1218,2.1211,2.1227,2.1203,2.114,2.1231,2.1231,2.1212,2.1074,2.1053,2.1041,2.1156,2.1154,2.1153,2.1074,0,2.123,2.1184,2.1209,2.1159,2.114,2.1178,2.1154,2.1153,2.1162,2.1147,2.1156,2.1136,2.1171,2.1166,2.1145,2.1152,2.1112,2.1159,2.1131,2.113,2.1128,2.1028,2.1005,2.0931,2.1065,2.1063,2.1062,0,2.113,2.1124,2.1073,2.1084,2.1077,2.1054,2.1046,2.1032,2.1032,2.104,2.1034,2.1056,2.1028,2.1068,2.1029,2.106,2.1051,2.1053,2.1051,2.1046,2.1089,2.1018,2.0908,2.0895,2.1046,2.1048,2.1049,0,2.1044,2.1024,2.0991,2.099,2.1001,2.0984,2.0988,2.0991,2.0982,2.0975,2.097,2.0958,2.0951,2.0941,2.0959,2.0987,2.0917,2.0959,2.0921,2.092,2.0901,2.0902,2.0785,2.09,2.09,2.09,2.0901,0,2.0951,2.0918,2.0953,2.0932,2.0896,2.0925,2.0888,2.0896,2.0899,2.0879,2.0912,2.0892,2.0919,2.0902,2.0916,2.0881,2.0878,2.0882,2.0886,2.0878,2.0877,2.0869,2.0874,2.0898,2.0898,2.0899,2.0899,0,2.0847,2.087,2.0836,2.0852,2.0855,2.0827,2.0839,2.082,2.0833,2.0808,2.0804,2.0823,2.0805,2.0824,2.0806,2.0816,2.0768,2.078,2.0768,2.077,2.0731,2.0733,2.0603,2.0587,2.0714,2.0713,2.0712,0,2.0785,2.0761,2.0775,2.0766,2.0768,2.0752,2.0745,2.0773,2.0764,2.0765,2.0745,2.0731,2.072,2.0689,2.07,2.0687,2.0698,2.0653,2.0695,2.0688,2.0695,2.0695,2.0692,2.0643,2.0642,2.064,2.0639,0,2.0672,2.0685,2.0675,2.0669,2.066,2.0656,2.0654,2.0644,2.0674,2.0662,2.0645,2.0637,2.0622,2.0606,2.0597,2.0599,2.0623,2.0627,2.0617,2.0607,2.06,2.0601,2.0742,2.0629,2.063,2.0631,2.0631,2.0632,2.0585,2.0566,2.0573,2.0561,2.0564,2.0562,2.0545,2.0558,2.0545,2.0536,2.0554,2.0532,2.0535,2.0526,2.0525,2.0508,2.0526,2.0512,2.0508,2.0504,2.0497,2.0606,2.0507,2.0507,2.0507,2.0508,2.0508,0,2.0472,2.048,2.0469,2.0467,2.0457,2.0486,2.0486,2.0475,2.0456,2.0458,2.0449,2.043,2.0416,2.0428,2.0416,2.04,2.041,2.0395,2.0395,2.0395,2.0482,2.0491,2.0387,2.0387,2.0387,2.0387,2.0387,2.0387,2.0412,2.0381,2.0395,2.0365,2.0373,2.0354,2.0352,2.035,2.0352,2.033,2.032,2.0329,2.0335,2.0324,2.0312,2.0316,2.0309,2.0289,2.0296,2.0377,2.0389,2.04,2.0408,2.0288,2.0288,2.021,2.0209,2.0209]}]]